This demonstration page uses our WeatherBlox Daily Observations layout. Learn more.

Left ArrowRight Arrow

Hourly Observations for January 13, 2019

Temp ( °F °C ) Dew Point ( °F °C ) Humidity (%) Winds ( mph kmh ) Pressure ( in mb ) Visibility ( mi km ) Precip ( " mm )
12:51 am 00:51 Cloudy 50 10 36 2.2 59 59 E 14 22 29.96 1015 10 16 N/A
1:51 am 01:51 Cloudy 49 9.4 36 2.2 61 61 ESE 13 20 29.97 1015 10 16 N/A
2:51 am 02:51 Cloudy 50 10 33 0.6 52 52 ESE 10 17 29.96 1015 10 16 N/A
3:51 am 03:51 Cloudy 46 7.8 36 2.2 68 68 WSW 5 7 29.97 1015 10 16 N/A
4:51 am 04:51 Mostly Cloudy 46 7.8 35 1.7 66 66 SSE 3 6 29.98 1015 10 16 N/A
5:51 am 05:51 Cloudy 44 6.7 40 4.4 85 85 N N/A 30.00 1016 10 16 N/A
6:51 am 06:51 Cloudy 44 6.7 42 5.6 93 93 NW 5 7 30.03 1017 10 16 N/A
7:51 am 07:51 Cloudy 44 6.7 42 5.6 93 93 N N/A 30.04 1017 10 16 N/A
8:51 am 08:51 Cloudy 46 7.8 43 6.1 89 89 NW 3 6 30.06 1018 10 16 N/A
9:51 am 09:51 Mostly Cloudy 50 10 42 5.6 74 74 S 3 6 30.08 1019 10 16 N/A
10:51 am 10:51 Mostly Cloudy 52 11.1 40 4.4 64 64 E 9 15 30.08 1019 10 16 N/A
11:51 am 11:51 Cloudy 54 12.2 37 2.8 53 53 ESE 6 9 30.05 1018 10 16 N/A
12:51 pm 12:51 Mostly Cloudy 54 12.2 37 2.8 53 53 E 8 13 30.03 1017 10 16 N/A
1:51 pm 13:51 Mostly Cloudy 55 12.8 38 3.3 53 53 E 8 13 30.02 1017 10 16 N/A
2:51 pm 14:51 Mostly Cloudy 57 13.9 39 3.9 51 51 undefined N/A 30.01 1016 10 16 N/A
3:51 pm 15:51 Partly Cloudy 56 13.3 41 5 57 57 N N/A 30.03 1017 10 16 N/A
4:51 pm 16:51 Mostly Cloudy 53 11.7 40 4.4 61 61 SSW 3 6 30.04 1017 10 16 N/A
5:51 pm 17:51 Cloudy 50 10 42 5.6 74 74 WSW 3 6 30.07 1018 10 16 N/A
6:51 pm 18:51 Mostly Cloudy 48 8.9 43 6.1 83 83 NW 3 6 30.09 1019 10 16 N/A
7:51 pm 19:51 Partly Cloudy 48 8.9 43 6.1 83 83 N N/A 30.10 1019 10 16 N/A
8:51 pm 20:51 Partly Cloudy 45 7.2 43 6.1 93 93 W 3 6 30.11 1020 10 16 N/A
9:51 pm 21:51 Partly Cloudy 45 7.2 43 6.1 93 93 N N/A 30.11 1020 10 16 N/A
10:51 pm 22:51 Cloudy 44 6.7 43 6.1 96 96 N N/A 30.12 1020 10 16 N/A
11:51 pm 23:51 Mostly Clear 43 6.1 42 5.6 97 97 NNW 3 6 30.11 1020 10 16 N/A

Powered by AerisWeather